Flag for U.S.A. Weather past 2 weeks in Odessa, Texas, U.S.A.

Now
31 °F

Ice fog.


Feels Like: 22 °F
Forecast: 37 / 62 °F
Wind: 10 mph from Southeast

Location: Odessa-Schlemeyer Field

Current Time: Feb 28, 2015 at 7:15:25 PM

Latest Report: Feb 28, 2015 at 6:53 PM


Visibility: 1 mi

Pressure: 30.14 "Hg

Humidity: 92%

Dew point: 29 °F

Location of OdessaLocation

Historic Weather in Odessa — Graph

°F

Odessa temperature yesterday

Maximum temperature yesterday: 26 °F (at 12:53 AM)
Minimum temperature yesterday: 19 °F (at 6:53 AM)
Average temperature yesterday: 20 °F

Past Weeks' High & Low Weather Summary

 TemperatureHumidityPressure
High77 °F (Feb 20, 2:53 PM)92% (Feb 22, 7:53 PM)30.56 "Hg (Feb 22, 7:53 PM)
Low19 °F (Feb 27, 6:53 AM)10% (Feb 20, 3:53 PM)29.64 "Hg (Feb 20, 4:53 PM)
Average42 °F65%30.08 "Hg
* Reported Feb 13 5:53 PM — Feb 28 5:53 PM, Odessa, Weather by CustomWeather, © 2015

Note: Actual official high and low records may vary slightly from our data, if they occured in-between our weather recording intervals... More about our weather records

Advertising

Odessa weather history for previous 24 hours

 ConditionsComfort  
Time TempWeatherWind HumidityBarometerVisibility
5:53 PM
Sat, Feb 28
31 °FIce fog.8 mph92%30.14 "Hg1 mi
4:53 PM31 °FIce fog.10 mph89%30.14 "Hg2 mi
3:53 PM30 °FIce fog.10 mph92%30.15 "Hg3 mi
2:53 PM30 °FIce fog.8 mph89%30.16 "Hg3 mi
2:02 PM29 °FIce fog.9 mph89%30.14 "Hg3 mi
1:53 PM28 °FIce fog.9 mph89%30.19 "Hg2 mi
12:53 PM28 °FIce fog.8 mph89%30.21 "Hg3 mi
11:53 AM26 °FIce fog.8 mph88%30.24 "Hg2 mi
10:53 AM24 °FIce fog.9 mph88%30.26 "Hg1 mi
9:53 AM23 °FIce fog.8 mph88%30.27 "Hg2 mi
8:53 AM22 °FIce fog.8 mph89%30.25 "Hg1 mi
7:53 AM21 °FIce fog.8 mph88%30.25 "Hg2 mi
6:53 AM20 °FIce fog.10 mph89%30.25 "Hg3 mi
5:53 AM20 °FIce fog.10 mph89%30.24 "Hg2 mi
4:53 AM20 °FIce fog.9 mph89%30.23 "Hg2 mi
3:53 AM20 °FIce fog.10 mph89%30.23 "Hg2 mi
2:53 AM20 °FIce fog.10 mph89%30.25 "Hg2 mi
1:53 AM20 °FIce fog.10 mph89%30.25 "Hg2 mi
12:53 AM20 °FIce fog.9 mph89%30.26 "Hg2 mi
11:53 PM
Fri, Feb 27
19 °FIce fog.9 mph92%30.28 "Hg2 mi
10:53 PM19 °FIce fog.13 mph88%30.28 "Hg2 mi
9:53 PM19 °FIce fog.12 mph88%30.29 "Hg2 mi
8:53 PM20 °FIce fog.13 mph89%30.28 "Hg3 mi
7:53 PM19 °FIce fog.14 mph92%30.27 "Hg3 mi
7:04 PM19 °FIce fog.16 mph88%30.19 "Hg3 mi
Weather by CustomWeather, © 2015

See weather overviewHow to use our weather pages